Regional Weather Roundup
Issued by NWS

Home | Current Version | Previous Version | Text Only | Print | Product List | Glossary On
Versions: 1 2 3 4 5 6 7 8 9 10 11 12 13 14 15 16 17 18 19 20 21 22 23 24 25 26 27 28 29 30 31 32 33 34 35 36 37 38 39 40 41 42 43 44 45 46 47 48 49 50
000
ASUS42 KKEY 051910
RWRKEY

FLORIDA REGIONAL WEATHER ROUNDUP FOR THE FLORIDA KEYS
NATIONAL WEATHER SERVICE KEY WEST FLORIDA
200 PM EST THU MAR 05 2015

...SOUTH FLORIDA AND THE KEYS...

CITY           SKY/WX    TMP DP  RH WIND       PRES   REMARKS
FORT MYERS     SUNNY     83  70  64 SW16      30.09F
SW REGIONAL AP MOSUNNY   84  68  58 SW17G25   30.09F
NAPLES         PTSUNNY   83  71  67 S14       30.10F
MIAMI          MOSUNNY   83  67  58 SE13G23   30.11F
WEST KENDALL   MOSUNNY   84  69  60 S12       30.11F
HOMESTEAD      SUNNY     83  69  62 SE13      30.10F
MARATHON       SUNNY     82  73  74 SE9       30.10F
BOCA CHICA NAS MOSUNNY   82  72  71 S9        30.10F
KEY WEST INTL  SUNNY     80  74  81 S8        30.11F

...INTERNATIONAL WEATHER...

CITY           SKY/WX    TMP DP  RH WIND       PRES   REMARKS
NASSAU BAHAMAS PTSUNNY   81  72  74 SE10      30.13F
CANCUN MEXICO  MOSUNNY   84  73  70 SE16      30.04F HX  91
COZUMEL MEXICO MOSUNNY   82  72  69 SE16      30.02F

ADJACENT COASTAL WATERS...

STATION/POSITION TIME  SKY/WX   TEMP    WIND        PRES    WAVE
                                AIR SEA DIR/SP/G            HT/PER
                 (UTC)          (F)     (DEG/KT/KT) (MB)    (FT/S)
PULASKI SHOAL LI 1800            76     150/  9/ 10 1019.2F
SAND KEY         1850            77     150/  7/  8 1019.3F
SOMBRERO KEY     1900            79     150/ 11/ 12 1019.9F
LONG KEY         1800            78 78  160/ 12/ 13 1020.6F
MOLASSES REEF    1900            77 76  170/ 11/ 12 1019.6F
FOWEY ROCKS      NOT AVBL
Buoy 42080       NOT AVBL

$$



USA.gov is the U.S. government's official web portal to all federal, state and local government web resources and services.